RH
4 5 5 13 38 38 55 32 52 92 62 28 23 38 38 16 18 23 14 15 20 38 37 32 28 33 30 31 17 26 38 20 13 12 9 12 12 18 30 29 18 20 75 84
4 4 4 7 18 30 81 41 60 31 38 11 21 53 81 97 92 29 54 48 21 28 31 36 35 36 36 28 21 18 27 30 34 39 11 12 21 22 16 15 12 12 15 44
4 4 4 5 12 49 77 56 83 74 63 58 62 48 68 76 45 45 50 48 30 31 30 35 41 37 30 28 27 24 22 39 45 44 19 14 21 25 28 31 29 25 21 21
4 4 4 4 10 19 47 75 63 79 98 88 85 69 56 92 90 95 47 64 74 73 50 38 41 32 30 34 28 25 27 29 37 52 46 16 21 23 25 25 32 26 26 21
5 5 4 4 10 22 47 95 53 50 85 56 56 23 94 53 87 78 50 53 65 73 74 37 39 36 32 28 21 21 18 29 40 45 38 16 18 23 27 32 32 41 37 31
5 5 5 6 8 13 82 90 42 38 71 57 62 41 53 86 89 76 76 60 47 48 48 34 36 34 31 24 22 12 7 5 26 44 38 29 21 28 28 32 35 40 42 50
5 5 5 5 8 18 62 42 37 31 67 60 86 93 93 81 92 82 78 80 60 60 58 41 35 30 28 37 32 26 18 7 8 40 53 40 28 32 34 32 27 42 53 43
6 6 5 6 8 56 58 44 26 20 77 92 90 77 85 79 82 74 75 76 63 38 42 44 35 27 25 33 36 32 23 14 16 23 45 45 46 43 41 46 32 27 49 60
5 5 6 7 21 29 58 36 46 63 51 95 88 90 86 74 77 83 78 79 70 64 41 36 46 31 28 28 41 37 23 15 19 21 25 32 29 40 54 53 53 40 33 50
5 4 5 9 10 30 51 70 49 56 98 90 88 84 68 73 74 65 55 77 59 66 52 25 33 34 31 29 33 38 24 20 22 22 25 32 35 34 47 55 50 43 35 34
6 5 6 11 11 50 76 56 64 51 67 52 69 80 96 71 58 62 59 53 50 72 61 47 30 33 32 30 34 33 35 39 35 31 28 28 30 25 31 38 42 39 31 29
9 7 11 19 64 66 82 92 82 64 61 71 83 74 88 90 64 67 65 58 65 67 60 32 33 32 28 26 24 22 24 26 27 26 30 35 33 33 32 13 26 18 24 24
15 10 7 36 69 78 78 69 92 85 61 63 68 66 82 94 80 75 60 74 85 61 45 56 48 38 32 30 35 33 34 32 23 31 54 57 57 47 26 4 16 30 25 24
35 26 10 33 71 71 81 89 64 95 65 69 49 70 84 88 63 62 77 84 68 52 61 59 49 45 39 38 35 31 26 35 44 47 55 74 66 41 11 6 8 15 17 17
62 36 21 69 62 69 78 74 76 69 69 73 58 61 80 83 78 54 60 85 62 85 69 91 67 54 44 41 29 42 44 40 25 56 67 83 90 74 15 8 13 30 47 31
62 53 36 49 55 54 53 57 56 61 80 95 78 58 65 67 60 57 40 46 37 86 85 66 59 53 51 34 24 30 38 43 37 25 36 65 78 64 34 14 54 58 56 71
61 61 46 24 53 54 53 51 54 52 78 70 73 63 54 60 55 32 28 46 43 80 84 86 66 64 61 55 29 17 15 25 30 20 33 64 68 45 14 47 47 74 72 76
64 66 61 52 28 50 50 46 57 47 58 72 58 53 49 44 48 54 54 54 64 66 85 79 72 66 65 54 36 20 13 17 23 14 25 30 51 54 54 55 33 66 68 65
67 66 55 36 30 46 47 45 45 47 52 60 53 56 51 48 47 54 52 58 61 53 46 56 59 57 46 29 28 16 12 12 13 16 20 27 32 55 51 44 41 48 70 68
66 62 49 28 41 51 47 47 50 45 51 53 69 70 60 61 62 55 61 62 62 65 63 55 58 47 30 25 22 14 12 12 17 21 16 26 32 40 54 41 45 50 78 72
59 61 44 41 41 43 49 55 69 64 55 55 65 64 73 70 67 64 71 63 59 57 55 54 52 42 29 25 19 14 16 17 19 18 16 23 26 27 43 57 50 45 69 75
84 78 72 65 56 50 51 55 59 58 66 94 85 78 75 64 64 60 55 54 54 55 50 37 34 26 21 17 18 17 13 14 15 14 18 20 19 28 47 31 40 39 38 71
95 68 79 75 70 66 66 64 69 70 72 94 96 95 92 79 77 63 57 55 53 46 38 28 17 14 14 31 27 28 16 12 12 20 16 20 26 31 44 42 24 44 35 31
86 76 80 86 69 69 66 56 83 84 89 95 87 87 82 92 83 80 63 49 26 23 21 18 15 14 12 13 24 32 44 26 18 24 38 30 30 28 21 39 35 38 42 34
65 54 64 57 52 50 51 68 76 73 70 78 86 63 71 54 42 38 27 23 18 18 19 17 14 14 14 14 13 13 23 44 42 33 55 73 76 70 40 63 60 19 37 52
64 58 50 47 39 45 54 48 62 68 70 70 63 52 40 41 41 34 22 19 16 15 17 18 19 17 16 16 15 13 13 14 22 44 57 56 85 98 91 98 98 76 22 26
Wind_Speed
4 5 7 8 3 9 2 8 2 7 3 0 7 12 12 10 5 6 12 10 6 4 5 8 12 12 13 13 13 6 4 5 4 6 7 8 8 8 8 8 9 9 14 12
6 6 5 3 5 6 2 3 3 1 8 5 6 7 8 13 15 10 13 18 7 6 6 11 10 10 9 13 14 12 3 4 6 7 7 8 6 6 7 8 7 9 13 16
10 11 10 9 6 8 6 6 1 3 8 13 11 3 6 9 10 14 17 13 16 10 8 10 11 8 10 9 11 10 10 5 7 7 9 8 7 7 8 9 9 8 10 13
14 14 13 12 11 2 5 7 7 7 10 13 13 6 15 7 9 11 13 15 11 13 13 9 10 10 8 10 13 12 11 11 9 8 9 9 9 10 9 10 10 9 9 11
16 18 17 14 10 8 2 11 7 9 11 8 12 8 8 9 6 8 12 7 15 20 15 13 9 11 10 10 14 15 11 9 11 9 8 9 9 9 11 11 10 11 10 10
23 24 23 16 16 14 8 17 13 14 13 12 8 6 9 8 11 11 10 13 16 15 17 10 11 12 13 11 13 13 14 13 11 12 10 10 10 10 12 13 12 12 11 11
24 25 24 23 22 17 18 17 14 13 12 8 9 11 12 16 12 9 13 10 16 20 9 8 10 12 13 11 13 15 13 12 10 10 12 10 11 13 13 14 14 13 12 13
31 28 24 22 23 18 22 23 19 18 11 12 16 15 16 11 12 12 17 18 7 8 7 2 4 6 10 8 10 15 13 11 9 8 10 12 15 17 15 13 14 14 13 12
31 29 26 26 19 22 23 20 20 24 23 20 21 24 19 16 22 27 23 26 12 11 8 1 8 7 8 9 10 11 13 10 8 6 8 13 17 16 14 14 14 16 16 14
29 29 28 28 30 28 19 17 18 28 31 26 28 27 25 16 11 13 24 27 10 10 9 9 12 10 9 10 10 10 10 9 8 9 9 10 14 14 14 14 14 16 17 17
27 29 24 28 33 28 20 14 8 20 33 28 24 29 33 19 18 15 11 12 9 5 4 12 13 12 9 9 10 11 12 14 15 14 14 13 14 14 15 16 15 16 17 18
22 26 26 28 23 29 24 24 13 12 15 24 28 23 16 21 17 16 20 20 12 15 8 11 11 13 9 9 10 10 11 14 17 18 19 19 19 18 18 16 18 17 19 18
22 25 27 30 26 23 25 17 17 11 18 24 24 24 19 20 19 19 19 16 13 14 10 2 8 12 14 13 13 14 15 14 14 15 18 19 19 17 19 17 17 20 22 21
16 17 26 30 23 19 13 17 9 17 20 21 23 24 18 23 26 28 16 15 18 9 5 3 0 6 9 10 13 14 15 16 16 18 17 19 19 18 20 21 21 21 21 22
20 18 21 34 25 16 13 16 19 18 17 10 6 16 20 24 24 13 14 18 10 9 13 10 11 9 10 11 14 16 19 19 17 16 18 19 21 19 21 22 24 24 25 26
25 22 13 39 33 24 17 12 18 21 24 16 14 8 10 20 27 18 14 14 12 19 18 15 18 15 22 22 24 19 20 23 19 18 20 19 21 25 24 21 22 25 26 26
23 25 17 21 36 30 22 23 26 18 20 13 15 13 11 19 23 26 17 16 18 19 20 19 19 20 23 28 36 30 23 22 23 19 19 19 22 20 20 19 21 24 26 21
25 29 26 22 35 39 29 25 31 23 25 15 13 14 19 23 18 17 9 4 6 16 16 18 22 26 26 32 32 27 24 21 24 19 18 18 18 18 17 22 24 20 21 19
23 34 27 27 31 37 32 31 27 30 24 21 20 23 28 22 22 22 23 14 15 22 24 28 34 36 36 31 23 27 25 23 24 21 17 18 19 16 17 21 25 21 18 17
27 19 24 27 36 35 36 33 28 30 28 28 24 22 24 23 20 22 16 20 24 23 27 36 39 41 33 28 21 22 22 23 24 25 21 20 21 20 18 19 19 21 18 15
25 19 26 30 34 40 39 34 29 30 32 34 30 31 25 21 19 18 22 23 28 33 37 42 45 42 35 28 23 22 20 25 26 26 25 23 23 20 19 19 18 19 17 16
31 29 29 29 30 39 42 37 36 38 33 29 29 27 28 28 27 30 35 37 39 41 42 40 39 33 29 26 27 26 24 25 29 27 26 26 26 23 21 20 19 18 15 15
41 39 40 38 38 39 38 39 36 39 33 26 37 35 33 34 36 38 38 37 37 37 38 38 37 35 28 27 27 28 29 28 28 28 27 27 28 26 25 22 22 19 17 15
40 44 38 37 43 42 47 42 37 26 21 24 27 33 38 37 42 39 41 39 39 39 37 36 35 35 32 29 29 29 30 32 31 31 30 32 31 31 27 24 26 25 23 19
40 45 47 42 40 39 41 42 30 48 39 31 30 27 30 34 36 36 35 39 38 36 36 35 34 35 35 34 32 33 34 33 34 35 34 33 33 32 32 27 27 30 30 29
51 47 45 46 43 39 39 41 38 34 36 35 35 38 43 41 41 40 40 39 36 35 34 34 35 38 38 39 41 40 39 37 37 38 38 39 38 38 36 30 33 36 36 39
Wind_Direction
201 204 175 163 155 103 293 90 30 46 331 242 19 15 1 1 32 47 59 59 113 79 42 2 344 348 350 347 345 311 333 292 279 289 270 259 256 254 255 255 253 244 246 254
225 232 265 214 224 127 135 251 283 82 206 62 14 37 13 336 323 8 27 32 77 125 57 30 13 10 352 342 340 323 328 258 282 297 282 262 252 255 247 252 246 249 244 248
220 225 236 250 229 135 222 227 256 353 317 358 356 288 276 279 319 10 9 31 63 33 36 40 1 2 342 348 351 354 321 274 266 277 277 264 269 250 254 262 270 255 257 253
239 245 248 251 268 236 227 256 262 251 268 271 296 255 271 316 350 329 343 352 3 354 12 11 11 330 327 339 324 328 331 311 282 270 267 261 260 270 254 252 263 269 259 247
235 246 252 253 262 249 207 271 279 273 272 292 287 262 245 252 245 304 315 348 331 344 321 319 347 333 325 332 326 332 336 321 307 290 268 254 248 253 256 258 263 264 261 255
235 245 255 249 240 237 235 245 271 255 260 273 275 274 234 255 299 310 292 335 327 308 307 311 325 318 317 324 324 332 330 331 305 297 289 261 250 250 261 266 270 265 263 248
244 249 256 258 257 236 228 257 267 257 250 240 261 295 283 299 273 267 295 288 299 294 303 326 315 311 305 312 313 314 332 332 316 283 291 284 270 266 262 270 271 268 266 257
240 236 241 252 252 222 230 249 261 256 230 263 271 280 273 288 274 273 281 266 311 333 307 344 351 323 311 306 309 311 323 321 317 290 292 304 301 279 266 263 272 270 262 257
240 236 232 228 234 234 237 253 270 274 262 258 267 272 275 290 298 272 268 260 241 242 313 319 45 348 308 307 300 309 313 315 319 331 328 311 303 290 268 258 260 265 262 259
235 233 226 226 226 225 226 242 261 247 252 257 259 268 270 281 310 272 253 253 264 210 240 359 12 358 323 314 307 309 320 325 333 334 330 314 302 295 279 262 258 259 258 255
230 231 221 223 226 214 221 232 270 256 249 255 273 274 271 288 290 284 263 262 305 228 263 330 3 352 329 321 311 316 319 316 316 320 314 304 299 294 288 281 272 265 261 260
227 233 215 219 198 216 211 244 250 296 283 261 264 266 294 273 297 275 267 269 247 242 250 307 337 339 357 354 336 317 313 307 305 304 299 291 289 294 295 282 276 270 264 262
229 226 214 210 208 229 230 227 240 261 299 266 261 258 270 282 276 313 280 259 224 248 289 315 314 341 1 1 352 344 335 322 307 307 304 299 298 293 295 291 277 270 269 262
235 228 220 203 189 211 190 239 295 246 288 290 266 253 299 300 307 340 323 219 226 281 291 265 334 357 7 354 351 337 338 336 335 313 302 299 301 301 297 292 287 280 274 267
245 250 218 187 179 184 191 240 216 256 264 266 349 284 278 287 296 335 200 211 218 250 279 283 285 269 346 347 333 317 312 320 333 316 304 294 294 288 286 286 293 289 279 274
227 245 244 194 188 196 209 219 215 246 236 229 247 286 226 263 277 287 265 261 257 233 246 259 285 303 319 342 335 315 304 303 312 314 310 300 291 292 290 292 299 293 289 285
227 243 240 213 197 210 217 212 225 256 256 226 233 213 254 252 257 277 278 274 273 230 235 248 277 298 319 328 322 313 295 289 296 303 312 309 305 300 293 296 301 293 287 286
223 233 238 244 208 216 218 217 221 241 251 216 234 250 243 259 273 287 261 258 255 273 256 284 296 307 315 312 306 302 289 282 282 293 301 316 304 309 305 297 309 295 286 286
216 227 227 223 209 216 223 224 227 233 241 251 252 243 258 259 262 270 283 292 284 282 285 297 298 297 298 302 292 287 282 276 276 285 294 303 318 313 309 307 307 304 293 283
236 221 217 212 210 213 220 226 232 230 237 242 231 233 248 248 249 270 276 286 292 298 287 286 289 292 297 297 278 278 281 277 274 279 284 293 306 307 296 294 302 305 286 278
189 185 204 209 213 216 214 222 220 232 237 243 241 243 240 248 260 276 278 279 280 281 282 283 285 290 293 290 277 272 277 277 275 278 284 288 291 293 292 278 290 297 289 274
203 199 204 203 208 211 212 228 231 236 236 213 208 220 232 242 246 254 262 269 276 279 278 279 281 285 285 282 282 279 274 274 275 275 274 278 281 284 285 279 277 283 292 283
210 205 207 207 212 218 224 230 236 238 247 240 224 225 233 242 249 252 253 265 271 269 269 272 278 282 280 277 274 274 273 270 272 271 269 270 276 278 272 274 264 265 271 269
216 221 214 213 219 224 228 229 233 232 233 243 240 237 255 246 251 259 268 267 269 272 274 275 278 282 283 282 276 274 271 273 273 273 269 267 267 273 274 271 264 252 252 252
220 225 229 237 242 242 237 236 242 238 243 258 254 263 259 260 262 262 266 269 267 268 272 275 278 280 283 283 279 275 273 272 273 273 271 268 265 262 267 266 269 257 252 250
226 228 233 241 247 250 254 252 256 257 256 260 263 266 267 266 267 269 268 267 268 269 269 270 273 278 279 279 280 277 274 273 273 271 271 267 264 256 251 256 261 255 243 244